Location: Unspecified
(0.0000°N, 0.0000°E)
Time: 13:20:34
(UTC+00:00)

Vanguard 2 - Pass Details

Date: 18 September 2019
Orbit: 554 x 2937 km, 32.9° (Epoch: 13 October)

Event Time Altitude Azimuth Distance (km) Brightness Sun altitude
Rises 23:48:49 0° 233° (SW) 6,652 12.3 -87.5°
Enters shadow 23:49:55 - 233° (SW) 6,417 12.2 -87.6°
Reaches altitude 10° 23:53:07 10° 232° (SW) 5,730 - -87.9°
Maximum altitude 00:11:21 85° 144° (SE) 2,731 - -85.3°
Drops below altitude 10° 00:25:22 10° 56° (NE) 4,568 - -82.0°
Sets 00:28:22 0° 56° (NE) 5,301 - -81.3°
